This demonstration page uses our WeatherBlox Daily Observations layout. Learn more.

Left ArrowRight Arrow

39.12711, -84.51439

Hourly Observations for June 26, 2017

Temp ( °F °C ) Dew Point ( °F °C ) Humidity (%) Winds ( mph kmh ) Pressure ( in mb ) Visibility ( mi km ) Precip ( " mm )
12:53 am 00:53 Mostly Cloudy 58 14.4 55 12.8 90 90 Calm 30.12 1020 10 16 0.00 0.00
1:53 am 01:53 Cloudy 58 14.4 56 13.3 93 93 Calm 30.13 1020 10 16 0.00 0.00
2:53 am 02:53 Partly Cloudy 57 13.9 55 12.8 93 93 Calm 30.12 1020 10 16 0.00 0.00
3:53 am 03:53 Clear 56 13.3 55 12.8 97 97 Calm 30.12 1020 10 16 0.00 0.00
4:53 am 04:53 Mostly Clear 60 15.6 50 10 70 70 W 6 9 30.12 1020 10 16 0.00 0.00
5:53 am 05:53 Clear 60 15.6 50 10 70 70 Calm 30.14 1021 10 16 0.00 0.00
6:53 am 06:53 Sunny 60 15.6 50 10 70 70 WSW 5 7 30.15 1021 10 16 0.00 0.00
7:53 am 07:53 Sunny 63 17.2 51 10.6 65 65 Calm 30.16 1021 10 16 0.00 0.00
8:53 am 08:53 Sunny 66 18.9 51 10.6 59 59 NW 6 9 30.16 1021 10 16 0.00 0.00
9:53 am 09:53 Sunny 68 20 52 11.1 57 57 W 9 15 30.16 1022 10 16 0.00 0.00
10:53 am 10:53 Mostly Sunny 69 20.6 51 10.6 53 53 WNW 8 13 30.17 1022 10 16 0.00 0.00
11:53 am 11:53 Partly Cloudy 71 21.7 50 10 47 47 WNW 10 17 30.16 1021 10 16 0.00 0.00
12:53 pm 12:53 Mostly Cloudy 73 22.8 52 11.1 48 48 NW 9 15 30.15 1021 10 16 0.00 0.00
1:53 pm 13:53 Mostly Cloudy 70 21.1 48 8.9 46 46 WNW 9 15 30.14 1021 10 16 0.00 0.00
2:53 pm 14:53 Mostly Cloudy 72 22.2 50 10 46 46 NW 9 15 30.13 1020 10 16 0.00 0.00
3:53 pm 15:53 Mostly Cloudy 75 23.9 51 10.6 43 43 W 9 15 30.11 1020 10 16 0.00 0.00
4:53 pm 16:53 Mostly Cloudy 74 23.3 54 12.2 50 50 WSW 13 20 30.09 1019 10 16 0.00 0.00
5:53 pm 17:53 Mostly Cloudy 72 22.2 50 10 46 46 W 14 22 30.07 1018 10 16 0.00 0.00
6:53 pm 18:53 Mostly Cloudy 72 22.2 51 10.6 48 48 W 10 17 30.06 1018 10 16 0.00 0.00
7:53 pm 19:53 Mostly Cloudy 71 21.7 49 9.4 46 46 W 14 22 30.05 1018 10 16 0.00 0.00
8:53 pm 20:53 Mostly Cloudy 69 20.6 50 10 51 51 WSW 10 17 30.05 1018 10 16 0.00 0.00
9:53 pm 21:53 Partly Cloudy 66 18.9 51 10.6 59 59 WSW 10 17 30.05 1018 10 16 0.00 0.00
10:53 pm 22:53 Clear 67 19.4 49 9.4 53 53 W 13 20 30.06 1018 10 16 0.00 0.00
11:53 pm 23:53 Cloudy 66 18.9 49 9.4 54 54 WNW 7 11 30.07 1018 10 16 0.00 0.00

Powered by AerisWeather